Location: Schommer Observatory
(40.5200°N, 74.4500°W)
Time: 11:54:40
(UTC-05:00)

ISS - Pass Details

Date: 17 November 2017
Orbit: 401 x 407 km, 51.6° (Epoch: 25 November)

Event Time Altitude Azimuth Distance (km) Brightness Sun altitude
Exits shadow 04:59:19 79° 119° (ESE) 413 -3.8 -20.4°
Drops below altitude 10° 05:02:23 10° 127° (SE) 1,446 -0.1 -19.8°
Sets 05:04:27 0° 128° (SE) 2,302 1.1 -19.4°
